Wind_Speed
11 11 10 6 3 2 1 2 3 4 4 5 5 5 5 4 3 3 2 4 6 5 5 2 4 4 5 9 11 8 6 10 14 15 14 15 13 8 12 15 10 5 19 20 21
11 11 11 8 4 1 1 2 3 4 5 5 5 5 4 3 4 6 8 4 5 6 6 5 7 5 8 9 3 8 3 12 14 12 13 12 12 13 13 15 11 15 19 20 19
12 12 11 9 5 1 1 3 3 4 5 6 6 5 5 4 4 6 7 6 6 7 3 6 6 11 16 11 11 9 9 13 14 15 13 11 11 11 15 11 14 18 19 20 18
12 12 11 10 7 2 0 2 3 4 5 7 6 6 5 6 1 4 8 8 7 5 4 5 9 18 17 2 15 11 8 14 17 12 10 10 10 11 3 15 14 17 20 19 17
12 12 11 10 7 4 1 1 3 3 5 6 7 7 7 8 3 6 9 9 5 1 4 7 11 9 3 3 5 11 9 11 14 9 14 10 9 8 7 6 16 20 19 18 17
12 12 11 10 7 4 2 1 3 4 5 6 7 8 7 12 4 6 8 9 5 5 4 5 5 9 9 5 7 7 10 11 10 10 3 11 10 12 8 10 14 20 19 18 16
12 11 10 9 7 4 2 0 3 4 5 6 7 7 7 2 5 6 11 9 7 5 4 3 6 10 5 6 2 11 9 10 10 7 8 4 9 12 13 14 16 17 17 16 15
12 11 10 9 7 3 1 1 3 4 5 5 7 8 2 4 5 8 12 10 9 7 4 4 6 7 11 5 7 3 8 8 7 6 9 8 5 12 13 16 17 17 16 16 16
12 11 9 7 5 1 3 2 2 4 5 7 5 6 6 6 5 9 13 10 9 8 7 7 8 10 8 5 6 4 1 6 9 7 3 5 11 11 12 14 16 17 17 17 17
12 10 8 6 3 2 3 4 4 4 6 8 6 7 8 11 9 9 12 9 10 9 10 10 11 13 15 10 2 4 7 6 7 10 8 9 8 11 13 12 14 16 17 18 18
12 9 7 5 1 4 5 1 2 3 12 6 12 4 7 8 8 9 11 10 11 10 14 10 12 6 7 14 5 4 2 6 2 4 7 9 3 14 16 15 16 16 18 19 19
12 9 6 3 3 5 4 5 4 4 11 11 6 6 5 11 10 10 11 12 14 14 16 5 14 8 5 5 7 7 5 4 5 2 9 7 8 9 16 16 16 17 19 20 20
12 9 5 2 4 7 6 3 2 4 8 11 11 13 12 12 13 16 14 16 10 14 12 15 7 3 4 6 9 13 6 0 5 6 10 5 7 12 11 17 17 17 18 19 21
12 9 5 0 3 5 7 5 2 4 6 14 12 9 11 10 8 5 14 11 9 12 12 10 0 3 8 10 6 3 3 5 5 9 6 14 9 11 12 11 16 19 19 20 20
12 8 5 9 5 8 4 2 3 3 6 14 15 11 13 17 11 14 12 13 14 12 8 12 9 9 12 12 2 7 7 8 7 12 11 12 7 7 10 8 12 13 19 21 23
14 8 7 8 11 7 5 3 2 7 2 9 12 13 15 17 9 9 12 14 13 11 10 19 3 8 11 5 6 5 9 11 12 12 9 8 6 11 10 7 4 5 13 17 22
14 6 9 10 3 8 6 6 7 9 8 10 14 18 18 12 12 11 14 15 11 10 14 17 18 14 12 11 11 10 14 9 9 9 4 9 6 8 6 4 4 3 6 10 17
9 2 9 15 7 7 8 9 8 5 5 5 11 14 15 13 13 12 12 13 15 13 12 9 14 19 14 15 10 15 13 11 4 5 7 5 1 7 4 5 3 6 7 10 15
2 3 2 6 9 9 13 10 6 2 5 6 8 10 14 12 7 12 14 14 13 12 11 5 8 4 5 10 15 14 12 13 12 12 7 5 9 7 6 4 5 12 7 5 10
2 5 3 6 10 11 10 16 3 5 7 8 12 12 14 13 12 12 13 10 9 8 13 4 8 8 9 9 11 13 12 8 9 8 9 7 2 10 10 8 10 10 13 11 3
2 8 3 7 10 13 10 15 5 4 6 7 11 6 13 9 15 14 7 9 4 4 12 14 8 7 6 11 12 9 13 13 14 11 10 5 5 12 7 4 2 9 10 8 4
7 4 5 11 12 16 12 12 5 6 6 7 7 9 9 10 8 14 11 3 3 8 11 14 9 11 14 11 8 10 11 12 10 12 11 8 9 9 12 7 4 12 13 16 12
6 3 6 11 7 9 7 5 6 6 6 3 7 4 1 8 6 9 8 10 3 9 3 5 9 12 12 10 14 11 14 12 15 11 12 10 4 8 11 5 13 13 11 12 12
6 5 7 12 11 12 7 11 10 4 3 7 7 5 8 10 8 4 9 6 2 8 8 7 13 17 14 12 7 5 11 12 11 11 11 13 15 9 5 6 9 11 12 13 12
5 2 6 4 8 8 4 4 11 6 5 5 6 9 6 12 12 10 12 4 8 7 8 8 16 17 19 20 18 12 15 13 14 13 15 15 17 14 12 10 8 9 13 13 12
8 6 2 3 1 7 5 5 7 5 4 6 9 2 6 10 11 5 18 5 10 8 10 12 15 15 20 20 17 22 18 19 19 19 20 19 19 15 9 6 10 9 10 11 12
8 4 6 6 6 8 1 3 5 2 4 4 7 4 10 9 9 10 10 14 14 7 12 13 12 13 19 16 19 24 19 22 18 21 19 20 17 5 5 6 6 7 8 10 12
Wind_Direction
15 12 5 3 350 322 253 242 228 180 188 195 183 185 210 205 194 168 252 213 220 196 190 163 235 259 250 257 252 273 268 72 65 95 107 121 114 92 103 130 142 70 141 140 150
11 11 6 2 4 350 245 226 230 199 182 202 182 183 203 201 208 225 243 186 162 155 137 194 220 208 252 257 262 231 73 73 78 107 112 108 109 130 140 131 132 117 117 143 151
6 7 6 0 5 15 222 213 219 217 193 191 182 182 188 185 208 147 199 162 155 149 219 248 254 234 222 236 149 237 53 79 89 91 113 117 120 152 134 151 152 139 144 152 156
5 3 3 2 358 14 233 203 211 206 211 187 180 178 186 198 355 167 162 158 161 180 258 248 235 244 238 117 92 295 63 71 91 107 126 97 131 133 15 133 146 150 155 157 162
359 359 359 360 360 354 50 188 194 193 202 193 182 180 177 218 74 168 164 161 159 190 240 269 275 312 181 205 355 62 94 105 99 97 83 115 98 119 92 142 148 153 162 164 170
356 355 356 354 358 346 350 135 175 173 191 191 189 186 199 248 122 181 173 165 179 214 238 278 335 319 310 358 73 103 121 112 112 97 120 97 106 171 122 145 154 158 169 174 173
351 351 349 350 352 348 335 149 156 165 179 190 186 195 247 37 165 195 186 189 205 220 279 311 317 265 342 117 213 140 142 147 135 152 126 51 153 83 139 145 150 165 174 181 181
346 345 345 346 345 350 11 199 157 158 165 183 177 187 292 184 176 190 194 206 212 230 262 296 306 288 300 131 202 156 217 94 150 193 111 149 117 118 147 155 164 174 180 182 185
343 341 341 340 339 13 87 114 133 142 152 159 153 202 167 187 188 198 198 208 214 227 250 279 290 273 196 203 34 7 249 250 149 166 138 219 112 137 169 160 172 182 183 189 189
341 338 337 337 329 164 109 102 105 128 141 145 198 230 207 207 184 184 198 205 209 222 241 248 243 236 96 82 176 337 353 358 147 190 201 204 133 152 182 181 173 185 188 190 194
338 335 334 340 251 179 158 140 192 190 207 276 171 258 146 162 170 192 201 212 221 232 247 193 272 181 214 173 360 167 87 307 135 38 274 225 194 164 180 201 184 187 191 196 198
336 332 325 330 196 180 177 242 3 349 211 213 215 218 169 182 183 194 193 211 212 236 214 233 239 51 35 315 291 282 201 174 115 143 259 175 210 205 174 199 201 193 189 198 198
334 330 316 308 203 197 202 255 279 330 249 170 205 205 190 194 212 188 199 214 234 239 237 263 63 55 264 253 266 244 59 31 158 199 232 205 312 180 196 184 199 211 196 198 198
330 322 300 208 140 199 226 220 280 305 261 148 195 208 186 205 211 192 202 220 229 253 238 255 271 257 247 261 266 339 55 278 269 273 192 251 189 224 162 194 187 206 212 203 201
324 310 261 192 196 202 164 208 268 234 252 151 154 147 185 204 111 192 205 213 250 217 263 225 221 228 240 255 300 308 333 307 304 278 273 210 266 127 165 184 188 207 209 215 205
321 300 240 217 212 190 221 245 238 233 204 158 155 188 184 211 190 142 184 221 233 255 239 265 138 279 266 282 249 335 268 252 255 248 252 72 314 169 135 141 112 129 189 216 213
322 282 223 193 185 205 204 210 225 254 135 150 176 175 196 183 178 188 192 197 209 212 228 225 240 223 241 241 212 237 256 251 220 213 96 100 279 292 57 71 73 297 265 224 211
329 255 199 190 215 195 191 228 255 352 175 131 165 187 204 178 204 198 199 213 224 252 282 214 216 206 207 230 248 208 245 287 323 270 31 155 289 113 32 312 278 229 245 239 199
33 56 138 214 198 192 213 225 250 18 23 200 196 207 199 190 233 197 218 218 204 212 256 209 238 95 183 245 226 246 251 280 294 275 247 249 101 216 70 140 110 62 59 160 187
157 213 186 199 183 183 231 249 337 344 315 278 221 210 211 197 197 195 187 211 214 209 227 290 267 172 151 232 243 258 280 259 215 261 266 248 183 96 88 84 80 67 84 80 136
217 218 166 176 174 212 229 236 217 163 279 268 253 268 253 235 202 215 241 126 236 202 242 247 241 163 169 212 228 190 234 245 278 293 302 277 98 107 114 108 52 59 31 58 65
277 240 160 167 202 221 230 234 20 254 219 255 288 300 289 270 257 242 235 156 124 268 220 236 270 242 224 233 241 305 283 230 230 221 238 288 293 62 75 42 73 39 21 11 359
259 72 178 185 232 206 213 244 254 248 235 248 243 251 191 273 261 267 255 79 97 247 318 274 230 254 240 226 200 233 246 249 269 275 266 282 244 141 148 177 58 28 6 355 352
277 207 165 214 265 283 185 228 201 244 259 282 303 259 251 245 223 279 260 120 262 286 16 297 266 273 280 264 7 217 238 254 269 268 260 236 241 245 35 12 4 355 347 348 347
240 4 346 197 211 252 305 343 231 179 249 255 228 254 274 260 242 238 246 168 199 169 245 247 262 275 280 288 293 289 274 264 264 270 268 282 293 310 335 2 336 332 346 352 356
325 330 246 347 261 253 150 206 267 117 271 203 259 51 304 266 297 312 329 225 271 197 243 247 260 272 276 281 283 280 262 267 271 272 273 274 277 291 34 351 346 347 346 357 4
356 317 284 110 218 235 110 94 218 342 177 326 327 299 258 26 351 320 308 305 290 301 282 286 278 271 264 263 271 263 258 258 268 272 267 267 277 24 342 5 331 359 6 4 359
Height
1507 1504 1503 1502 1501 1501 1500 1500 1500 1501 1501 1501 1502 1502 1501 1502 1503 1503 1505 1504 1504 1503 1502 1505 1505 1504 1501 1498 1493 1492 1485 1475 1477 1482 1492 1494 1496 1499 1503 1509 1511 1513 1515 1523 1530
1507 1505 1503 1501 1501 1500 1500 1500 1500 1500 1501 1500 1502 1502 1502 1502 1502 1505 1504 1503 1502 1503 1503 1506 1501 1501 1497 1489 1487 1484 1476 1478 1476 1482 1488 1493 1496 1501 1504 1508 1514 1514 1520 1527 1531
1506 1505 1503 1501 1500 1500 1500 1499 1499 1499 1500 1500 1501 1502 1502 1502 1503 1501 1502 1502 1502 1503 1505 1505 1502 1495 1485 1484 1484 1479 1478 1475 1479 1486 1490 1494 1499 1499 1502 1506 1511 1517 1523 1527 1531
1507 1505 1503 1501 1500 1499 1499 1499 1499 1499 1499 1501 1501 1502 1502 1503 1497 1500 1502 1503 1503 1503 1506 1503 1498 1486 1492 1478 1482 1488 1476 1477 1484 1489 1492 1491 1497 1498 1500 1502 1510 1517 1523 1527 1530
1507 1505 1503 1501 1500 1499 1499 1499 1498 1499 1500 1501 1501 1501 1502 1503 1501 1500 1502 1503 1503 1505 1505 1500 1491 1486 1487 1480 1477 1473 1479 1483 1488 1490 1494 1494 1496 1500 1504 1507 1511 1517 1523 1526 1528
1507 1505 1503 1501 1500 1499 1498 1499 1499 1499 1500 1501 1502 1502 1503 1501 1502 1501 1502 1503 1506 1506 1503 1499 1496 1492 1485 1481 1482 1479 1481 1485 1488 1494 1495 1493 1499 1497 1506 1509 1511 1516 1522 1524 1526
1507 1505 1503 1501 1500 1499 1498 1499 1499 1500 1500 1501 1502 1502 1504 1502 1502 1503 1504 1505 1506 1505 1502 1501 1499 1493 1487 1485 1485 1484 1485 1485 1488 1492 1493 1494 1492 1497 1505 1509 1513 1517 1520 1523 1526
1506 1504 1503 1501 1500 1500 1499 1499 1500 1500 1501 1501 1503 1503 1499 1500 1502 1502 1504 1505 1505 1505 1503 1501 1499 1492 1487 1488 1484 1483 1476 1502 1486 1490 1493 1499 1504 1499 1505 1508 1513 1516 1520 1522 1525
1506 1504 1502 1501 1500 1499 1500 1500 1500 1501 1501 1502 1504 1504 1497 1499 1501 1502 1503 1504 1505 1504 1503 1501 1498 1488 1486 1484 1499 1488 1507 1498 1486 1486 1489 1494 1492 1498 1503 1504 1510 1514 1517 1521 1523
1505 1503 1502 1501 1499 1500 1500 1500 1500 1501 1502 1503 1503 1507 1498 1498 1500 1501 1503 1503 1503 1502 1502 1500 1492 1481 1489 1512 1508 1504 1496 1487 1490 1486 1486 1485 1486 1494 1500 1500 1505 1510 1514 1517 1520
1504 1502 1500 1499 1499 1499 1500 1501 1503 1504 1501 1494 1493 1494 1495 1498 1499 1501 1502 1503 1503 1501 1494 1490 1485 1484 1487 1488 1480 1486 1498 1492 1483 1480 1483 1478 1481 1484 1493 1495 1498 1503 1509 1513 1516
1502 1501 1500 1499 1498 1499 1499 1500 1497 1499 1493 1495 1496 1496 1496 1497 1497 1498 1501 1501 1498 1495 1489 1490 1487 1473 1482 1483 1483 1480 1481 1491 1480 1481 1480 1478 1478 1476 1480 1489 1491 1496 1501 1507 1512
1500 1499 1498 1498 1498 1499 1499 1500 1499 1498 1491 1490 1492 1493 1495 1497 1491 1494 1499 1497 1493 1491 1483 1485 1480 1483 1485 1482 1484 1471 1482 1483 1487 1477 1474 1477 1487 1476 1473 1478 1487 1489 1494 1500 1504
1499 1497 1497 1498 1500 1500 1500 1500 1499 1499 1487 1484 1489 1489 1492 1492 1490 1491 1494 1495 1492 1490 1484 1482 1478 1486 1486 1484 1481 1479 1476 1479 1478 1478 1502 1469 1538 1478 1468 1472 1477 1484 1487 1492 1498
1497 1496 1496 1497 1496 1499 1500 1499 1499 1499 1493 1476 1480 1484 1486 1487 1486 1490 1493 1494 1491 1488 1490 1485 1482 1486 1489 1482 1478 1482 1479 1478 1477 1476 1467 1462 1473 1475 1464 1471 1470 1475 1479 1485 1490
1494 1493 1493 1495 1495 1496 1498 1499 1499 1496 1488 1475 1476 1480 1482 1483 1483 1489 1492 1494 1491 1487 1486 1482 1483 1484 1479 1477 1481 1479 1483 1478 1474 1470 1482 1466 1476 1468 1465 1466 1464 1468 1474 1478 1483
1490 1490 1490 1491 1496 1496 1497 1499 1492 1485 1462 1471 1473 1472 1475 1476 1478 1484 1486 1489 1489 1501 1493 1481 1480 1479 1482 1484 1479 1482 1481 1490 1492 1482 1479 1465 1481 1465 1456 1459 1466 1470 1471 1472 1477
1488 1487 1487 1488 1492 1494 1497 1493 1494 1458 1461 1459 1462 1467 1472 1467 1473 1478 1480 1484 1479 1476 1476 1480 1485 1471 1474 1480 1477 1477 1477 1486 1509 1492 1476 1465 1484 1471 1458 1461 1462 1466 1465 1469 1472
1487 1487 1488 1489 1490 1493 1495 1487 1468 1458 1457 1464 1463 1469 1467 1464 1467 1474 1476 1474 1469 1475 1484 1476 1479 1467 1470 1471 1476 1478 1485 1467 1479 1469 1481 1463 1460 1453 1457 1457 1461 1464 1467 1467 1470
1487 1489 1489 1489 1490 1493 1489 1481 1464 1469 1472 1469 1468 1461 1466 1465 1473 1470 1471 1464 1467 1470 1474 1469 1485 1465 1470 1475 1473 1476 1465 1482 1477 1509 1510 1475 1475 1467 1466 1463 1462 1465 1469 1472 1473
1488 1484 1486 1488 1491 1490 1481 1468 1463 1475 1478 1470 1465 1461 1462 1456 1461 1461 1461 1466 1468 1469 1471 1469 1474 1471 1474 1477 1470 1475 1480 1476 1471 1471 1487 1491 1472 1455 1461 1463 1466 1466 1470 1470 1472
1488 1476 1485 1488 1488 1479 1471 1465 1477 1474 1477 1473 1472 1464 1461 1457 1460 1461 1459 1459 1473 1472 1474 1469 1465 1476 1468 1456 1457 1458 1462 1461 1476 1487 1473 1475 1473 1446 1457 1465 1468 1469 1476 1476 1477
1484 1478 1485 1486 1476 1468 1469 1473 1478 1476 1473 1472 1470 1473 1470 1468 1476 1461 1458 1472 1476 1476 1474 1467 1473 1481 1473 1459 1457 1466 1463 1463 1460 1460 1477 1485 1472 1451 1458 1463 1469 1477 1482 1483 1482
1488 1475 1480 1483 1477 1472 1465 1473 1477 1483 1479 1480 1474 1478 1473 1472 1470 1469 1470 1472 1480 1478 1481 1482 1470 1471 1473 1457 1457 1468 1465 1459 1465 1473 1469 1468 1466 1455 1457 1464 1470 1478 1482 1483 1482
1488 1477 1482 1472 1473 1473 1471 1472 1474 1478 1482 1482 1477 1477 1473 1475 1470 1473 1469 1469 1480 1483 1484 1479 1482 1472 1464 1457 1458 1462 1465 1462 1468 1467 1477 1468 1465 1459 1461 1468 1472 1478 1482 1482 1482
1494 1490 1485 1482 1484 1480 1481 1480 1477 1478 1486 1479 1484 1477 1481 1482 1476 1475 1474 1471 1474 1472 1478 1474 1480 1478 1477 1466 1467 1467 1464 1464 1465 1466 1466 1466 1468 1462 1468 1475 1477 1480 1483 1483 1484
1499 1497 1493 1486 1482 1480 1476 1479 1483 1489 1489 1490 1490 1489 1485 1489 1492 1491 1490 1487 1485 1486 1484 1480 1478 1482 1484 1469 1472 1473 1463 1461 1462 1461 1463 1471 1465 1466 1473 1478 1483 1483 1486 1487 1487